Change the Weather History Date:

Wednesday, March 5, 2014

  Actual Average Record
Temperature  
Mean Temperature 44 °F 59 °F  
Max Temperature 53 °F 69 °F 86 °F (1910)
Min Temperature 35 °F 49 °F 26 °F (1917)
Degree Days  
Heating Degree Days 21 7  
Month to date heating degree days 82 37  
Since 1 July heating degree days 1733 1319  
Cooling Degree Days 0 1  
Month to date cooling degree days 3 5  
Year to date cooling degree days 18 28  
Moisture  
Dew Point 42 °F    
Average Humidity 89    
Maximum Humidity 100    
Minimum Humidity 77    
Precipitation  
Precipitation T in 0.12 in 3.81 in (2011)
Month to date precipitation 0.68 0.61  
Year to date precipitation 7.47 9.30  
Snow  
Snow 0.00 in 0.00 in T in (1954)
Month to date snowfall 0.0 0.0  
Since 1 July snowfall 0.1 0.1  
Snow Depth 0.00 in    
Sea Level Pressure  
Sea Level Pressure 30.07 in    
Wind  
Wind Speed 8 mph (NNE)    
Max Wind Speed 14 mph    
Max Gust Speed 17 mph    
Visibility 9 miles    
Events      
T = Trace of Precipitation, MM = Missing Value Source: NWS Daily Summary

Daily Weather History Graph

Daily Weather History Graph

Search for Another Location

Airport or City:

Trip Planner

Search our weather history database for the weather conditions in past years. The results will help you decide how hot, cold, wet, or windy it might be!

Date:

Astronomy

Mar. 05, 2014 Rise Set
Actual Time 6:34 AM CST 6:14 PM CST
Civil Twilight 6:10 AM CST 6:38 PM CST
Nautical Twilight 5:42 AM CST 7:06 PM CST
Astronomical Twilight 5:14 AM CST 7:34 PM CST
Moon 9:22 AM CST (3/5) 11:00 PM CST (3/5)
Length of Visible Light 12h 28m
Length of Day
11h 40m
Waxing Crescent, 23% of the Moon is Illuminated
Mar 5
Waxing Crescent
Mar 8
First Quarter
Mar 16
Full
Mar 23
Last Quarter
Mar 30
New

Hourly Weather History & Observations

Time (CST) Temp. Windchill Dew Point Humidity Pressure Visibility Wind Dir Wind Speed Gust Speed Precip Events Conditions
12:53 AM 35.1 °F 28.6 °F 33.1 °F 92% 30.11 in 10.0 mi ENE 8.1 mph - N/A   Overcast
1:53 AM 36.0 °F 29.6 °F 33.1 °F 89% 30.12 in 10.0 mi East 8.1 mph - N/A   Overcast
2:53 AM 36.0 °F 29.0 °F 34.0 °F 93% 30.09 in 10.0 mi ENE 9.2 mph - N/A   Overcast
3:53 AM 36.0 °F 30.3 °F 34.0 °F 93% 30.09 in 10.0 mi ENE 6.9 mph - N/A   Overcast
4:53 AM 36.0 °F 29.6 °F 34.0 °F 93% 30.09 in 10.0 mi East 8.1 mph - N/A   Overcast
5:53 AM 37.0 °F 30.4 °F 35.1 °F 93% 30.10 in 8.0 mi NE 9.2 mph - N/A   Overcast
6:53 AM 37.0 °F 30.4 °F 35.1 °F 93% 30.10 in 7.0 mi NE 9.2 mph - N/A   Overcast
7:53 AM 37.9 °F 31.5 °F 36.0 °F 93% 30.10 in 6.0 mi NNE 9.2 mph - N/A   Overcast
8:53 AM 39.0 °F 34.0 °F 37.0 °F 93% 30.12 in 7.0 mi NNE 6.9 mph - N/A   Overcast
9:53 AM 39.9 °F 35.8 °F 37.0 °F 89% 30.12 in 8.0 mi NNE 5.8 mph - N/A   Overcast
10:53 AM 42.1 °F 38.4 °F 39.0 °F 89% 30.12 in 8.0 mi NE 5.8 mph - N/A   Overcast
11:53 AM 45.0 °F 40.6 °F 41.0 °F 86% 30.09 in 9.0 mi NE 8.1 mph - N/A   Overcast
12:18 PM 46.9 °F - 41.0 °F 80% 30.05 in 10.0 mi NE 8.1 mph - N/A   Overcast
12:37 PM 48.9 °F - 43.0 °F 80% 30.04 in 10.0 mi NE 10.4 mph - N/A   Scattered Clouds
12:49 PM 48.2 °F - 42.8 °F 82% 30.04 in 10.0 mi NE 8.1 mph - N/A   Mostly Cloudy
12:53 PM 50.0 °F - 44.1 °F 80% 30.06 in 10.0 mi NE 10.4 mph - N/A   Mostly Cloudy
1:53 PM 50.0 °F - 44.1 °F 80% 30.04 in 10.0 mi East 11.5 mph - N/A   Overcast
2:53 PM 50.0 °F - 44.1 °F 80% 30.03 in 10.0 mi ENE 8.1 mph - N/A   Overcast
3:50 PM 51.8 °F - 44.6 °F 76% 30.00 in 10.0 mi NE 8.1 mph - N/A   Mostly Cloudy
3:53 PM 52.0 °F - 45.0 °F 77% 30.02 in 10.0 mi ENE 6.9 mph - N/A   Mostly Cloudy
4:35 PM 52.0 °F - 45.0 °F 77% 30.01 in 10.0 mi NNW 8.1 mph - N/A   Overcast
4:53 PM 52.0 °F - 45.0 °F 77% 30.04 in 10.0 mi NNE 6.9 mph - N/A   Overcast
5:53 PM 50.0 °F - 45.0 °F 83% 30.06 in 10.0 mi NNW 8.1 mph - N/A   Overcast
6:53 PM 48.0 °F - 45.0 °F 89% 30.08 in 10.0 mi North 8.1 mph - N/A   Overcast
7:18 PM 48.0 °F - 45.0 °F 89% 30.06 in 10.0 mi North 6.9 mph - N/A   Overcast
7:39 PM 48.0 °F - 45.0 °F 89% 30.07 in 10.0 mi North 6.9 mph - N/A   Overcast
7:53 PM 48.0 °F - 45.0 °F 89% 30.10 in 10.0 mi NNW 9.2 mph - N/A   Overcast
8:05 PM 48.0 °F - 45.0 °F 89% 30.07 in 10.0 mi North 8.1 mph - N/A   Overcast
8:17 PM 48.0 °F - 45.0 °F 89% 30.06 in 10.0 mi NNE 6.9 mph - N/A   Overcast
8:53 PM 48.0 °F - 45.0 °F 89% 30.08 in 10.0 mi NNE 9.2 mph - N/A   Mostly Cloudy
9:46 PM 46.9 °F - 46.0 °F 97% 30.07 in 9.0 mi North 6.9 mph - 0.00 in   Mostly Cloudy
9:53 PM 46.9 °F - 46.0 °F 97% 30.09 in 9.0 mi North 9.2 mph - 0.00 in   Overcast
10:05 PM 48.0 °F - 46.0 °F 93% 30.08 in 9.0 mi North 8.1 mph - N/A   Overcast
10:33 PM 46.9 °F - 45.0 °F 93% 30.04 in 9.0 mi NNE 11.5 mph - N/A   Overcast
10:53 PM 46.9 °F - 45.0 °F 93% 30.08 in 9.0 mi North 10.4 mph - N/A   Overcast
11:17 PM 46.9 °F - 45.0 °F 93% 30.06 in 9.0 mi NNE 9.2 mph - N/A   Overcast
11:53 PM 46.9 °F - 45.0 °F 93% 30.09 in 9.0 mi North 4.6 mph - N/A   Overcast